{"data":{"norad_id":51140,"epoch":"2026-05-25T03:53:35.115936Z","epoch_age_seconds":64081,"freshness":"FRESH","line1":"1 51140U 22005AN  26145.16221199 -.00000643  00000+0 -22313-4 0  9998","line2":"2 51140  53.2144 315.8307 0001463  83.2655 276.8504 15.08832523240287","mean_motion":15.08832523,"eccentricity":0.0001463,"inclination_deg":53.2144,"raan_deg":315.8307,"arg_perigee_deg":83.2655,"mean_anomaly_deg":276.8504,"bstar":-2.2313e-5,"rev_number":24028,"period_min":95.43802761733,"perigee_km":538.75415401177,"apogee_km":540.77833250075,"semimajor_km":6917.9032432563,"source":"CELESTRAK","updated_at":"2026-05-25T13:38:16.914364Z"}}